Regional Weather Roundup
Issued by NWS

Home | Current Version | Previous Version | Text Only | Print | Product List | Glossary On
Versions: 1 2 3 4 5 6 7 8 9 10 11 12 13 14 15 16 17 18 19 20 21 22 23 24 25 26 27 28 29 30 31 32 33 34 35 36 37 38 39 40 41 42 43 44 45 46 47 48 49 50
124
ASUS44 KFWD 181715
RWRTX
NORTH TEXAS HOURLY WEATHER ROUNDUP
NATIONAL WEATHER SERVICE FORT WORTH TX
1100 AM CST THU JAN 18 2018

NOTE: "FAIR" INDICATES FEW OR NO CLOUDS BELOW 12,000 FEET WITH NO
SIGNIFICANT WEATHER AND/OR OBSTRUCTIONS TO VISIBILITY.

TXZ118-119-181800-
DALLAS/FORT WORTH METROPLEX

CITY           SKY/WX    TMP DP  RH WIND       PRES   REMARKS
DFW AIRPORT    FAIR      37  11  34 S13       30.51S WCI  29
DALLAS LOVE    FAIR      35  12  38 S10       30.53F WCI  27
FTW MEACHAM    FAIR      38  12  34 S10       30.50F WCI  31
DAL-EXECUTIVE  FAIR      35  13  40 S10       30.51F WCI  27
FTW-ALLIANCE   FAIR      37  11  34 S13       30.50S WCI  29
FTW-NAS-JRB    FAIR      39  11  31 S10       30.51F WCI  32
FTW-SPINKS     SUNNY     37  10  32 SW9       30.53S WCI  31
ARLINGTON      FAIR      33  14  45 S9        30.52F WCI  25
GRAND PRAIRIE  SUNNY     34  12  40 S9        30.55S WCI  26
ADDISON        SUNNY     30  10  43 S10       30.53S WCI  21
MESQUITE       SUNNY     34  12  40 SE9       30.55F WCI  26
LANCASTER      FAIR      33  13  44 S8        30.56S WCI  26
$$

TXZ091>094-102>105-117-120-121-131>134-181800-
NORTH CENTRAL TEXAS

CITY           SKY/WX    TMP DP  RH WIND       PRES   REMARKS
SHRMAN/DENISON FAIR      36  11  35 S10       30.51F WCI  29
GAINESVILLE    FAIR      35  11  37 S8        30.49F WCI  29
BOWIE          FAIR      37  15  40 S8        30.45F WCI  31
BRIDGEPORT     FAIR      40  12  32 SW8       30.49F WCI  34
DENTON         FAIR      36  14  40 S12       30.51S WCI  28
MCKINNEY       FAIR      34  14  43 S7        30.52F WCI  28
BONHAM         FAIR      33  12  42 SW10      30.53F WCI  25
GREENVILLE     FAIR      36  14  41 S7        30.54F WCI  30
ROCKWALL       FAIR      34  13  43 S9        30.54F WCI  26
TERRELL        FAIR      34  14  43 VRB7      30.55F WCI  28
WAXAHACHIE     FAIR      35  16  47 S9        30.55S WCI  27
CLEBURNE       FAIR      34  14  44 S12       30.52F WCI  25
GRANBURY       FAIR      37  17  43 E6        30.51F WCI  33
$$

TXZ083>090-098>101-113>116-127>130-139>142-154-155-181800-
WESTERN NORTH TEXAS

CITY           SKY/WX    TMP DP  RH WIND       PRES   REMARKS
WICHITA FALLS  FAIR      39  10  30 S14       30.42S WCI  31
WF-KICKAPOO    FAIR      38  10  31 S8        30.45F WCI  32
VERNON           N/A    N/A N/A N/A S8        30.40
ABILENE        FAIR      39   6  25 SW12      30.40F WCI  32
ABILENE-DYESS  FAIR      46   6  19 S12       30.39F WCI  40
GRAHAM           N/A     38  13  35 S3        30.44F
BRECKENRIDGE   CLOUDY    42   8  24 SW8       30.44S WCI  37
CISCO          CLOUDY    37   9  30 SW10      30.43R WCI  30
EASTLAND       CLOUDY    35  12  39 S7        30.44F WCI  29
RANGER         PTSUNNY   37  14  39 SW8       30.44F WCI  30
MINERAL WELLS  FAIR      34  12  40 SE5       30.46F WCI  30
STEPHENVILLE   FAIR      36  17  45 S8        30.49S WCI  29
COMANCHE       CLOUDY    38  17  41 S6        30.47S WCI  34
BROWNWOOD      CLOUDY    36  12  38 S6        30.46F WCI  31
COLEMAN        CLOUDY    38  11  32 S6        30.43F WCI  34
$$

TXZ143>147-156>162-174-175-181800-
CENTRAL TEXAS

CITY           SKY/WX    TMP DP  RH WIND       PRES   REMARKS
WACO           PTSUNNY   35  15  44 SE8       30.55F WCI  29
WACO-TSTC      SUNNY     34  14  44 S9        30.56F WCI  26
WACO-MCGREGOR  CLOUDY    34  14  43 SE10      30.55F WCI  26
CORSICANA      FAIR      34  14  43 S6        30.57F WCI  29
MEXIA          FAIR      33  15  48 S8G16     30.56F WCI  26
HEARNE         CLOUDY    31  19  63 SE3       30.60F
CAMERON        CLOUDY    32  20  61 SE3       30.57F
TEMPLE         CLOUDY    33  11  39 S7        30.54F WCI  27
KILLEEN        CLOUDY    34  13  42 SE9       30.49F WCI  26
KILLEEN-SKYLRK CLOUDY    34  13  41 SE9       30.52F WCI  27
FORT HOOD      CLOUDY    34  12  39 SE6       30.47F WCI  29
GATESVILLE     PTSUNNY   34  12  40 CALM      30.52F
HAMILTON       CLOUDY    36  18  48 S5        30.47F WCI  32
LAMPASAS       CLOUDY    35  16  45 CALM      30.47F
$$

TXZ095>097-106>112-122>126-135>138-148>153-164>167-181800-
EAST TEXAS

CITY           SKY/WX    TMP DP  RH WIND       PRES   REMARKS
PARIS          FAIR      34  14  43 SW10      30.55F WCI  26
SULPHUR SPRNGS FAIR      35  14  42 S8        30.58S WCI  28
MOUNT PLEASANT FAIR      32  16  51 S5        30.59S WCI  28
GILMER         FAIR      30  16  54 S5        30.57F WCI  25
MINEOLA        FAIR      32  14  47 S5        30.56F WCI  27
TYLER          FAIR      32  12  43 CALM      30.55F
LONGVIEW       FAIR      32  18  56 S5        30.57F WCI  27
MARSHALL       FAIR      32  16  51 CALM      30.61F
ATHENS         FAIR      30  14  51 S3        30.56F
PALESTINE      FAIR      33  17  51 S5        30.58F WCI  29
JACKSONVILLE   FAIR      33  16  48 CALM      30.56F
CENTER         FAIR      33  13  43 CALM      30.59F
NACOGDOCHES    FAIR      34  10  37 VRB5      30.58F WCI  30
LUFKIN         FAIR      33  17  51 SE6       30.58F WCI  28
$$

SUPPLEMENTAL OBSERVATIONS (NWS FORT WORTH AREA)

CITY           SKY/WX    TMP DP  RH WIND       PRES   REMARKS
DENISON DAM      N/A     36  10  35 SW9         N/A  WCI  29
CADDO GRASSLND   N/A     34  12  40 S9          N/A  WCI  26
PAT MAYSE LAKE   N/A     32  12  43 S9          N/A  WCI  24
GREENVILLE       N/A     36  14  41 S8          N/A  WCI  29
CEDAR HILL       N/A     37  12  35 S8          N/A  WCI  31
LBJ GRASSLAND    N/A     37  12  35 S6          N/A  WCI  33
COMANCHE         N/A     39  14  35 S6          N/A  WCI  35
MCGREGOR         N/A     36  12  38 S6          N/A  WCI  31
LAKE LIMESTONE   N/A     34  16  47 S6          N/A  WCI  29
$$

SUPPLEMENTAL OBSERVATIONS (NWS NORMAN AREA)

CITY           SKY/WX    TMP DP  RH WIND       PRES   REMARKS
GOODLETT         N/A     41   3  20 SW12      30.35F WCI  34
ODELL            N/A     40   3  21 S12       30.38F WCI  33
CROWELL          N/A     42   3  20 SW13      30.39S WCI  35
KNOX CITY        N/A     43   0  16 SW12      30.40F WCI  37
SEYMOUR          N/A     44   1  16 S13       30.40F WCI  38
MILLERS CREEK    N/A     43   9  24 S13         N/A  WCI  36
$$

SUPPLEMENTAL OBSERVATIONS (NWS SAN ANGELO AREA)

CITY           SKY/WX    TMP DP  RH WIND       PRES   REMARKS
WEINERT          N/A     44   3  18 SW10      30.40F WCI  38
HASKELL          N/A     43   3  18 S8        30.39F WCI  39
THROCKMORTON     N/A     42   5  22 S7        30.42F WCI  37
CLYDE            N/A     41   4  21 S12       30.41F WCI  34
HAMBY            N/A     45   7  21 SW14        N/A  WCI  38
IVIE RESERVOIR   N/A     41   9  26 S7          N/A  WCI  36
COLORADO BEND    N/A     39  14  35 S5          N/A  WCI  36
$$

SUPPLEMENTAL OBSERVATIONS (NWS SHREVEPORT AREA)

CITY           SKY/WX    TMP DP  RH WIND       PRES   REMARKS
CLARKSVILLE      N/A     36  12  38 S7          N/A  WCI  30
TEXARKANA        N/A     34  16  47 SW5         N/A  WCI  30
LINDEN           N/A     36  14  41 S3          N/A
CADDO LAKE       N/A     37  14  38 W3          N/A
GILMER           N/A     36  18  48 SW2         N/A
HENDERSON        N/A     36  14  41 S3          N/A
LUFKIN           N/A     37  16  41 MISG        N/A
N SABINE NF      N/A     36  18  48 MISG        N/A
$$

SUPPLEMENTAL OBSERVATIONS ARE A COLLECTION OF AUTOMATED INSTRUMENTS
THAT ARE MAINTAINED BY A VARIETY OF FEDERAL AND STATE AGENCIES.
CERTAIN ELEMENTS...SUCH AS HUMIDITY VALUES AND SUSTAINED WIND
SPEEDS...MAY BE APPROXIMATED.





USA.gov is the U.S. government's official web portal to all federal, state and local government web resources and services.